This is the latest recevied weather packets stored in our database for station/object AC1IX. If no packets are shown the sender has not sent any weather packets the latest 10 day(s).
| Time | Temp. | Humidity | Pressure | Rain* | Wind** | Luminosity | Snow |
|---|---|---|---|---|---|---|---|
| 1777587525 | 9.44° C | 88% | 1008.1 hPa | 0 mm | - | 15 W/m² | - |
| 1777587221 | 9.44° C | 90% | 1007.8 hPa | 0 mm | - | 18 W/m² | - |
| 1777586917 | 9.44° C | 91% | 1007.9 hPa | 0 mm | - | 20 W/m² | - |
| 1777586613 | 9.44° C | 93% | 1007.9 hPa | 0 mm | - | 23 W/m² | - |
| 1777586309 | 10° C | 94% | 1007.9 hPa | 0 mm | - | 23 W/m² | - |
| 1777586007 | 10° C | 91% | 1007.7 hPa | 0 mm | - | 24 W/m² | - |
| 1777585702 | 9.44° C | 91% | 1007.9 hPa | 0 mm | - | 27 W/m² | - |
| 1777585402 | 10° C | 96% | 1007.4 hPa | 0 mm | - | 30 W/m² | - |
| 1777585102 | 10° C | 97% | 1007.4 hPa | 0 mm | - | 31 W/m² | - |
| 1777584798 | 10° C | 98% | 1007.3 hPa | 0 mm | - | 35 W/m² | - |
| 1777584496 | 10° C | 98% | 1007.3 hPa | 0 mm | - | 40 W/m² | - |
| 1777584193 | 10° C | 98% | 1007.3 hPa | 0 mm | - | 43 W/m² | - |
| 1777583892 | 10° C | 98% | 1007.3 hPa | 0 mm | - | 49 W/m² | - |
| 1777583588 | 10° C | 98% | 1007.4 hPa | 0 mm | - | 54 W/m² | - |
| 1777583287 | 10° C | 99% | 1007.1 hPa | 0 mm | - | 43 W/m² | - |
| 1777582982 | 10° C | 99% | 1007.1 hPa | 0 mm | - | 52 W/m² | - |
| 1777582680 | 10° C | 99% | 1007 hPa | 0 mm | - | 94 W/m² | - |
| 1777582380 | 10° C | 99% | 1007.1 hPa | 0 mm | - | 51 W/m² | - |
| 1777582078 | 10° C | 99% | 1007.3 hPa | 0 mm | - | 49 W/m² | - |
| 1777581773 | 10° C | 99% | 1007.1 hPa | 0 mm | - | 56 W/m² | - |
| 1777581472 | 9.44° C | 99% | 1007 hPa | 0 mm | - | 46 W/m² | - |
| 1777581167 | 10° C | 99% | 1007.2 hPa | 0 mm | - | 32 W/m² | - |
| 1777580862 | 10° C | 99% | 1007.2 hPa | 0 mm | - | 40 W/m² | - |
| 1777580557 | 10° C | 99% | 1007 hPa | 0 mm | - | 55 W/m² | - |
| 1777580253 | 10° C | 99% | 1007.1 hPa | 0 mm | - | 62 W/m² | - |
* Rain latest hour (hover to see other rain measurements)
** Current wind speed in m/s (hover to see current wind gust speed)